Weather History for KBIL - September, 2013

Change the Weather History Date:

Saturday, September 14, 2013

  Actual Average Record
Temperature  
Mean Temperature 63 °F 61 °F  
Max Temperature 67 °F 74 °F 97 °F (1948)
Min Temperature 59 °F 48 °F 31 °F (1970)
Degree Days  
Heating Degree Days 2 6  
Month to date heating degree days 2 54  
Since 1 July heating degree days 2 91  
Cooling Degree Days 0 2  
Month to date cooling degree days 96 37  
Year to date cooling degree days 833 619  
Growing Degree Days 12 (Base 50)    
Moisture  
Dew Point 58 °F    
Average Humidity 84    
Maximum Humidity 100    
Minimum Humidity 67    
Precipitation  
Precipitation 1.21 in 0.04 in 1.21 in (2013)
Month to date precipitation 2.94 0.57  
Year to date precipitation 11.12 10.62  
Snow  
Snow 0.00 in 0.00 in 5.70 in (1982)
Month to date snowfall T 0.2  
Since 1 July snowfall T 0.2  
Since 1 September snowfall T 0.2  
Snow Depth 0.00 in    
Sea Level Pressure  
Sea Level Pressure 29.93 in    
Wind  
Wind Speed 9 mph (WSW)    
Max Wind Speed 18 mph    
Max Gust Speed 24 mph    
Visibility 6 miles    
Events Fog , Rain , Thunderstorm    
T = Trace of Precipitation, MM = Missing Value Source: NWS Daily Summary

Daily Weather History Graph

Daily Weather History Graph

Search for Another Location

Airport or City:

Trip Planner

Search our weather history database for the weather conditions in past years. The results will help you decide how hot, cold, wet, or windy it might be!

Date:

Astronomy

Sep. 14, 2013 Rise Set
Actual Time 6:51 AM MDT 7:26 PM MDT
Civil Twilight 6:21 AM MDT 7:56 PM MDT
Nautical Twilight 5:46 AM MDT 8:32 PM MDT
Astronomical Twilight 5:09 AM MDT 9:08 PM MDT
Moon 4:22 PM MDT (9/14) 1:13 AM MDT (9/14)
Length of Visible Light 13h 35m
Length of Day
12h 35m
Waxing Gibbous, 73% of the Moon is Illuminated
Sep 14
Waxing Gibbous
Sep 19
Full
Sep 26
Last Quarter
Oct 4
New
Oct 11
First Quarter

Hourly Weather History & Observations

Time (MDT) Temp. Dew Point Humidity Pressure Visibility Wind Dir Wind Speed Gust Speed Precip Events Conditions
12:53 AM 60.1 °F 57.9 °F 93% 29.81 in 10.0 mi SW 11.5 mph - 0.01 in Rain Light Rain
1:53 AM 60.1 °F 57.9 °F 93% 29.81 in 6.0 mi WSW 11.5 mph - 0.05 in Rain Rain
2:53 AM 60.1 °F 57.0 °F 90% 29.81 in 9.0 mi West 15.0 mph - 0.06 in Rain Light Rain
3:53 AM 60.1 °F 57.0 °F 90% 29.81 in 10.0 mi WSW 10.4 mph 21.9 mph 0.04 in Rain Light Rain
4:53 AM 59.0 °F 57.9 °F 96% 29.81 in 6.0 mi WSW 13.8 mph - 0.02 in Rain Rain
5:16 AM 59.0 °F 57.9 °F 96% 29.89 in 9.0 mi WSW 12.7 mph - 0.04 in Rain , Thunderstorm Light Thunderstorms and Rain
5:36 AM 60.1 °F 57.0 °F 90% 29.90 in 10.0 mi West 11.5 mph - 0.06 in Rain Light Rain
5:53 AM 60.1 °F 57.9 °F 93% 29.82 in 8.0 mi WSW 11.5 mph - 0.08 in Rain Light Rain
6:49 AM 59.0 °F 57.2 °F 94% 29.89 in 0.5 mi WSW 12.7 mph - 0.10 in Rain Light Rain
6:53 AM 59.0 °F 57.9 °F 96% 29.82 in 0.5 mi WSW 11.5 mph - 0.10 in Rain Light Rain
7:10 AM 59.0 °F 57.9 °F 96% 29.90 in 0.5 mi SSW 10.4 mph - 0.04 in Rain , Thunderstorm Heavy Thunderstorms and Rain
7:41 AM 59.0 °F 59.0 °F 100% 29.89 in 0.8 mi WSW 16.1 mph - 0.23 in Rain , Thunderstorm Light Thunderstorms and Rain
7:53 AM 60.1 °F 59.0 °F 96% 29.83 in 0.8 mi WSW 15.0 mph - 0.23 in   Overcast
8:32 AM 59.0 °F 59.0 °F 100% 29.91 in 0.5 mi SSW 12.7 mph - 0.01 in Fog Fog
8:40 AM 59.0 °F 57.9 °F 96% 29.91 in 0.5 mi SSW 13.8 mph 24.2 mph 0.01 in Fog , Rain Light Rain
8:51 AM 59.0 °F 59.0 °F 100% 29.92 in 0.5 mi SSW 11.5 mph - 0.01 in Fog Fog
8:53 AM 59.0 °F 59.0 °F 100% 29.86 in 0.5 mi SSW 10.4 mph - 0.01 in Fog Fog
9:17 AM 60.1 °F 59.0 °F 96% 29.92 in 5.0 mi WSW 12.7 mph - 0.01 in Rain Light Rain
9:53 AM 62.1 °F 59.0 °F 90% 29.88 in 8.0 mi WSW 10.4 mph - 0.01 in Rain Light Rain
10:53 AM 62.1 °F 60.1 °F 93% 29.90 in 3.0 mi WSW 6.9 mph - 0.05 in Rain Rain
11:53 AM 61.0 °F 60.1 °F 97% 29.91 in 10.0 mi SW 13.8 mph - 0.08 in Rain Light Rain
12:53 PM 63.0 °F 61.0 °F 93% 29.94 in 10.0 mi West 4.6 mph - 0.05 in Rain Light Rain
1:53 PM 61.0 °F 57.9 °F 90% 29.95 in 10.0 mi NNE 8.1 mph - 0.07 in Rain Light Rain
2:53 PM 60.1 °F 57.9 °F 93% 29.96 in 10.0 mi SSW 4.6 mph - 0.35 in Rain Light Rain
3:02 PM 61.0 °F 57.9 °F 90% 30.00 in 0.5 mi WSW 4.6 mph - 0.00 in Fog Fog
3:08 PM 61.0 °F 60.1 °F 97% 30.01 in 3.0 mi SW 4.6 mph - 0.00 in   Mostly Cloudy
3:16 PM 62.1 °F 60.1 °F 93% 30.01 in 10.0 mi Variable 3.5 mph - 0.00 in Fog Mostly Cloudy
3:53 PM 64.0 °F 61.0 °F 90% 29.97 in 10.0 mi SSW 5.8 mph - 0.00 in   Mostly Cloudy
4:53 PM 64.0 °F 61.0 °F 90% 29.99 in 10.0 mi West 3.5 mph - N/A   Overcast
5:53 PM 64.9 °F 59.0 °F 81% 30.00 in 5.0 mi East 9.2 mph - 0.01 in Rain Light Rain
6:53 PM 64.9 °F 57.9 °F 78% 30.01 in 10.0 mi NNW 3.5 mph - 0.00 in   Mostly Cloudy
7:53 PM 64.0 °F 57.9 °F 80% 30.03 in 10.0 mi Calm Calm - N/A   Mostly Cloudy
8:53 PM 64.9 °F 57.0 °F 75% 30.05 in 10.0 mi NNE 8.1 mph - N/A   Mostly Cloudy
9:53 PM 64.0 °F 57.9 °F 80% 30.06 in 10.0 mi NE 9.2 mph - N/A   Mostly Cloudy
10:53 PM 62.1 °F 52.0 °F 70% 30.09 in 10.0 mi NE 11.5 mph - N/A   Scattered Clouds
11:53 PM 61.0 °F 51.1 °F 70% 30.09 in 10.0 mi NE 11.5 mph - N/A   Scattered Clouds